Owatonna, MN

11:19 PM CST on February 06, 2016 (GMT -0600)
Owatonna Degner Regional

Weather History for KOWA - October, 2012

Change the Weather History Date:

Thursday, October 4, 2012

  Actual Average Record
Temperature  
Mean Temperature 55 °F -  
Max Temperature 66 °F 66 °F 84 °F (1969)
Min Temperature 44 °F 42 °F 25 °F (1989)
Degree Days  
Heating Degree Days 10    
Growing Degree Days 5 (Base 50)    
Moisture  
Dew Point 30 °F    
Average Humidity 43    
Maximum Humidity 58    
Minimum Humidity 27    
Precipitation  
Precipitation 0.00 in - - ()
Sea Level Pressure  
Sea Level Pressure 30.03 in    
Wind  
Wind Speed 18 mph (West)    
Max Wind Speed 30 mph    
Max Gust Speed 37 mph    
Visibility 10 miles    
Events      
Averages and records for this station are not official NWS values.
T = Trace of Precipitation, MM = Missing Value Source: NWS Daily Summary

Daily Weather History Graph

Daily Weather History Graph

Search for Another Location

Airport or City:

Trip Planner

Search our weather history database for the weather conditions in past years. The results will help you decide how hot, cold, wet, or windy it might be!

Date:

Astronomy

Oct. 04, 2012 Rise Set
Actual Time 7:14 AM CDT 6:47 PM CDT
Civil Twilight 6:46 AM CDT 7:16 PM CDT
Nautical Twilight 6:12 AM CDT 7:49 PM CDT
Astronomical Twilight 5:38 AM CDT 8:23 PM CDT
Moon 9:13 PM CDT (10/4) 11:42 AM CDT (10/4)
Length of Visible Light 12h 30m
Length of Day
11h 32m
Waning Gibbous, 82% of the Moon is Illuminated
Oct 4
Waning Gibbous
Oct 8
Last Quarter
Oct 15
New
Oct 21
First Quarter
Oct 29
Full

Hourly Weather History & Observations

Time (CDT) Temp. Windchill Dew Point Humidity Pressure Visibility Wind Dir Wind Speed Gust Speed Precip Events Conditions
12:14 AM 64.4 °F - 35.6 °F 34% 29.86 in 10.0 mi SE 12.7 mph - N/A   Clear
12:34 AM 64.4 °F - 35.6 °F 34% 29.85 in 10.0 mi SSE 11.5 mph - N/A   Clear
12:53 AM 64.4 °F - 35.6 °F 34% 29.84 in 10.0 mi SSE 12.7 mph - N/A   Clear
1:14 AM 64.4 °F - 35.6 °F 34% 29.83 in 10.0 mi SSE 13.8 mph 19.6 mph N/A   Unknown
1:34 AM 66.2 °F - 33.8 °F 30% 29.83 in 10.0 mi SSE 16.1 mph 23.0 mph N/A   Clear
1:54 AM 64.4 °F - 33.8 °F 32% 29.83 in 10.0 mi SSE 15.0 mph 20.7 mph N/A   Clear
2:14 AM 64.4 °F - 33.8 °F 32% 29.83 in 10.0 mi South 15.0 mph - N/A   Clear
2:34 AM 64.4 °F - 33.8 °F 32% 29.83 in 10.0 mi South 15.0 mph 21.9 mph N/A   Clear
2:54 AM 62.6 °F - 35.6 °F 37% 29.83 in 10.0 mi South 11.5 mph - N/A   Clear
3:14 AM 62.6 °F - 32.0 °F 32% 29.83 in 10.0 mi SSW 19.6 mph 24.2 mph N/A   Clear
3:34 AM 62.6 °F - 28.4 °F 27% 29.85 in 10.0 mi SW 21.9 mph 26.5 mph N/A   Clear
3:54 AM 57.2 °F - 35.6 °F 44% 29.86 in 10.0 mi WSW 20.7 mph 27.6 mph N/A   Clear
4:14 AM 55.4 °F - 35.6 °F 47% 29.87 in 10.0 mi WSW 15.0 mph - N/A   Clear
4:34 AM 53.6 °F - 37.4 °F 54% 29.88 in 10.0 mi WSW 19.6 mph 25.3 mph N/A   Clear
4:54 AM 53.6 °F - 37.4 °F 54% 29.89 in 10.0 mi West 11.5 mph - N/A   Scattered Clouds
5:14 AM 53.6 °F - 37.4 °F 54% 29.89 in 10.0 mi WSW 17.3 mph 21.9 mph N/A   Unknown
5:34 AM 53.6 °F - 37.4 °F 54% 29.90 in 10.0 mi West 15.0 mph 23.0 mph N/A   Unknown
5:54 AM 51.8 °F - 37.4 °F 58% 29.92 in 10.0 mi West 18.4 mph 28.8 mph N/A   Unknown
6:14 AM 51.8 °F - 35.6 °F 54% 29.93 in 10.0 mi West 20.7 mph 25.3 mph N/A   Mostly Cloudy
6:34 AM 51.8 °F - 35.6 °F 54% 29.95 in 10.0 mi WSW 20.7 mph 28.8 mph N/A   Mostly Cloudy
6:54 AM 51.8 °F - 35.6 °F 54% 29.95 in 10.0 mi West 21.9 mph 29.9 mph N/A   Overcast
7:14 AM 50.0 °F - 35.6 °F 58% 29.95 in 10.0 mi West 20.7 mph 33.4 mph N/A   Overcast
7:39 AM 50.0 °F - 35.6 °F 58% 29.95 in 10.0 mi West 17.3 mph 28.8 mph N/A   Unknown
7:54 AM 48.2 °F - 33.8 °F 58% 29.96 in 10.0 mi West 21.9 mph 27.6 mph N/A   Unknown
8:14 AM 48.2 °F - 33.8 °F 58% 29.97 in 10.0 mi West 17.3 mph 24.2 mph N/A   Unknown
8:34 AM 48.2 °F - 33.8 °F 58% 29.98 in 10.0 mi West 26.5 mph 32.2 mph N/A   Unknown
8:54 AM 48.2 °F - 32.0 °F 54% 29.98 in 10.0 mi West 24.2 mph 27.6 mph N/A   Unknown
9:14 AM 48.2 °F - 30.2 °F 50% 29.99 in 10.0 mi West 24.2 mph 33.4 mph N/A   Unknown
9:34 AM 48.2 °F - 30.2 °F 50% 30.00 in 10.0 mi West 21.9 mph 32.2 mph N/A   Unknown
9:54 AM 48.2 °F - 28.4 °F 46% 30.01 in 10.0 mi West 29.9 mph 36.8 mph N/A   Unknown
10:14 AM 48.2 °F - 28.4 °F 46% 30.01 in 10.0 mi West 23.0 mph 34.5 mph N/A   Unknown
10:34 AM 48.2 °F - 28.4 °F 46% 30.02 in 10.0 mi West 25.3 mph 32.2 mph N/A   Clear
10:54 AM 48.2 °F - 28.4 °F 46% 30.03 in 10.0 mi West 25.3 mph 31.1 mph N/A   Mostly Cloudy
11:35 AM 50.0 °F - 28.4 °F 43% 30.04 in 10.0 mi West 28.8 mph 34.5 mph N/A   Mostly Cloudy
11:54 AM 50.0 °F - 28.4 °F 43% 30.05 in 10.0 mi West 24.2 mph 32.2 mph N/A   Overcast
12:14 PM 51.8 °F - 28.4 °F 41% 30.06 in 10.0 mi West 19.6 mph 32.2 mph N/A   Overcast
12:34 PM 51.8 °F - 28.4 °F 41% 30.06 in 10.0 mi West 20.7 mph 27.6 mph N/A   Unknown
12:54 PM 51.8 °F - 26.6 °F 38% 30.07 in 10.0 mi West 23.0 mph 26.5 mph N/A   Unknown
1:14 PM 51.8 °F - 26.6 °F 38% 30.07 in 10.0 mi WNW 23.0 mph 34.5 mph N/A   Overcast
1:34 PM 51.8 °F - 26.6 °F 38% 30.08 in 10.0 mi West 23.0 mph 34.5 mph N/A   Overcast
1:56 PM 53.6 °F - 26.6 °F 35% 30.08 in 10.0 mi West 27.6 mph 34.5 mph N/A   Mostly Cloudy
2:14 PM 53.6 °F - 26.6 °F 35% 30.08 in 10.0 mi West 25.3 mph 33.4 mph N/A   Mostly Cloudy
2:34 PM 51.8 °F - 26.6 °F 38% 30.09 in 10.0 mi WNW 24.2 mph 29.9 mph N/A   Mostly Cloudy
2:54 PM 51.8 °F - 24.8 °F 35% 30.10 in 10.0 mi West 25.3 mph 36.8 mph N/A   Overcast
3:14 PM 51.8 °F - 26.6 °F 38% 30.10 in 10.0 mi West 26.5 mph 35.7 mph N/A   Mostly Cloudy
3:34 PM 51.8 °F - 24.8 °F 35% 30.11 in 10.0 mi WNW 23.0 mph 31.1 mph N/A   Mostly Cloudy
3:54 PM 51.8 °F - 24.8 °F 35% 30.11 in 10.0 mi West 26.5 mph 34.5 mph N/A   Mostly Cloudy
4:14 PM 51.8 °F - 24.8 °F 35% 30.11 in 10.0 mi WNW 24.2 mph 28.8 mph N/A   Mostly Cloudy
4:34 PM 51.8 °F - 24.8 °F 35% 30.12 in 10.0 mi WNW 25.3 mph 28.8 mph N/A   Mostly Cloudy
4:54 PM 53.6 °F - 24.8 °F 33% 30.12 in 10.0 mi WNW 20.7 mph 31.1 mph N/A   Mostly Cloudy
5:14 PM 51.8 °F - 23.0 °F 33% 30.13 in 10.0 mi WNW 25.3 mph 34.5 mph N/A   Mostly Cloudy
5:34 PM 50.0 °F - 24.8 °F 37% 30.13 in 10.0 mi West 24.2 mph 29.9 mph N/A   Scattered Clouds
5:54 PM 50.0 °F - 24.8 °F 37% 30.14 in 10.0 mi WNW 19.6 mph 28.8 mph N/A   Scattered Clouds
6:14 PM 48.2 °F - 23.0 °F 37% 30.14 in 10.0 mi WNW 19.6 mph 25.3 mph N/A   Scattered Clouds
6:34 PM 48.2 °F - 24.8 °F 40% 30.14 in 10.0 mi WNW 17.3 mph 26.5 mph N/A   Scattered Clouds
6:54 PM 48.2 °F - 24.8 °F 40% 30.14 in 10.0 mi WNW 17.3 mph 21.9 mph N/A   Mostly Cloudy
7:14 PM 48.2 °F - 24.8 °F 40% 30.15 in 10.0 mi WNW 23.0 mph 28.8 mph N/A   Overcast
7:34 PM 48.2 °F - 24.8 °F 40% 30.16 in 10.0 mi WNW 25.3 mph 31.1 mph N/A   Overcast
8:14 PM 48.2 °F - 24.8 °F 40% 30.17 in 10.0 mi WNW 23.0 mph 29.9 mph N/A   Overcast
8:34 PM 48.2 °F - 23.0 °F 37% 30.18 in 10.0 mi WNW 19.6 mph 33.4 mph N/A   Overcast
8:54 PM 48.2 °F - 23.0 °F 37% 30.17 in 10.0 mi WNW 15.0 mph 24.2 mph N/A   Overcast
9:14 PM 46.4 °F 40.4 °F 24.8 °F 43% 30.17 in 10.0 mi WNW 13.8 mph 21.9 mph N/A   Overcast
9:34 PM 46.4 °F 39.2 °F 26.6 °F 46% 30.18 in 10.0 mi West 18.4 mph 23.0 mph N/A   Overcast
9:54 PM 46.4 °F 40.1 °F 26.6 °F 46% 30.18 in 10.0 mi West 15.0 mph 23.0 mph N/A   Overcast
10:14 PM 46.4 °F 40.7 °F 26.6 °F 46% 30.18 in 10.0 mi West 12.7 mph - N/A   Unknown
10:34 PM 44.6 °F 37.4 °F 26.6 °F 49% 30.18 in 10.0 mi West 16.1 mph 20.7 mph N/A   Unknown
10:54 PM 44.6 °F 37.8 °F 26.6 °F 49% 30.18 in 10.0 mi WNW 15.0 mph 20.7 mph N/A   Clear
11:14 PM 44.6 °F 37.8 °F 26.6 °F 49% 30.17 in 10.0 mi WNW 15.0 mph - N/A   Clear
11:34 PM 44.6 °F 37.4 °F 26.6 °F 49% 30.17 in 10.0 mi WNW 16.1 mph 21.9 mph N/A   Clear
11:54 PM 44.6 °F 37.4 °F 26.6 °F 49% 30.16 in 10.0 mi WNW 16.1 mph 23.0 mph N/A   Clear